When you browse on this site, cookies collect data to enhance your experience and personalize the content and advertising you see.
Visit our Privacy Policy to learn more. By continuing to use the site, you agree to this use of cookies and data.
  • In United Kingdom
  • List of Countries
  • For 7 days
  • Water Temperature
  • Satellite Maps
  • Weather Map
  • Weather Widgets
  • user-avatar
    Login

    Hourly Weather Santa Cruz Xitla

    Today, 21 March, Thursday

    Time Temperature Precipitation Wind Pressure Humidity
    00:00 +16°C° 0 mm 1 mps 612 mmHg 83%
    01:00 +15°C° 0 mm 1 mps 612 mmHg 85%
    02:00 +15°C° 0 mm 1 mps 611 mmHg 86%
    03:00 +15°C° 0 mm 2 mps 611 mmHg 87%
    04:00 +14°C° 0 mm 2 mps 611 mmHg 88%
    05:00 +14°C° 0 mm 2 mps 611 mmHg 89%
    06:00 +13°C° 0 mm 2 mps 611 mmHg 89%
    07:00 +15°C° 0 mm 2 mps 612 mmHg 81%
    08:00 +17°C° 0 mm 2 mps 613 mmHg 73%
    09:00 +18°C° 0 mm 2 mps 614 mmHg 66%
    10:00 +20°C° 0.1 mm 2 mps 614 mmHg 59%
    11:00 +23°C° 0.1 mm 2 mps 615 mmHg 52%
    12:00 +24°C° 0.1 mm 2 mps 615 mmHg 46%
    13:00 +24°C° 0.4 mm 2 mps 615 mmHg 47%
    14:00 +24°C° 0.4 mm 2 mps 614 mmHg 48%
    15:00 +24°C° 0.4 mm 2 mps 614 mmHg 49%
    16:00 +23°C° 0.7 mm 2 mps 613 mmHg 54%
    17:00 +21°C° 0.7 mm 2 mps 613 mmHg 58%
    18:00 +20°C° 0.7 mm 2 mps 612 mmHg 63%
    19:00 +19°C° 0.3 mm 2 mps 612 mmHg 66%
    20:00 +17°C° 0.3 mm 2 mps 612 mmHg 69%
    21:00 +16°C° 0.3 mm 2 mps 612 mmHg 72%
    22:00 +16°C° 0 mm 2 mps 612 mmHg 75%
    23:00 +15°C° 0 mm 2 mps 612 mmHg 77%

    Tomorrow, 22 March, Friday

    Time Temperature Precipitation Wind Pressure Humidity
    00:00 +14°C° 0 mm 2 mps 612 mmHg 80%
    01:00 +14°C° 0 mm 2 mps 611 mmHg 81%
    02:00 +13°C° 0 mm 2 mps 611 mmHg 82%
    03:00 +13°C° 0 mm 2 mps 610 mmHg 83%
    04:00 +13°C° 0 mm 2 mps 610 mmHg 83%
    05:00 +12°C° 0 mm 2 mps 610 mmHg 84%
    06:00 +12°C° 0 mm 2 mps 610 mmHg 85%
    07:00 +14°C° 0 mm 2 mps 612 mmHg 76%
    08:00 +16°C° 0 mm 2 mps 613 mmHg 67%
    09:00 +18°C° 0 mm 2 mps 614 mmHg 59%
    10:00 +22°C° 0 mm 1 mps 615 mmHg 53%
    11:00 +24°C° 0 mm 1 mps 615 mmHg 47%
    12:00 +26°C° 0 mm 1 mps 616 mmHg 41%
    13:00 +25°C° 0.7 mm 1 mps 615 mmHg 45%
    14:00 +24°C° 0.7 mm 2 mps 614 mmHg 50%
    15:00 +23°C° 0.7 mm 2 mps 613 mmHg 54%
    16:00 +21°C° 1.5 mm 2 mps 612 mmHg 60%
    17:00 +20°C° 1.5 mm 2 mps 612 mmHg 66%
    18:00 +19°C° 1.5 mm 2 mps 612 mmHg 71%
    19:00 +19°C° 0.6 mm 1 mps 612 mmHg 75%
    20:00 +18°C° 0.6 mm 1 mps 612 mmHg 79%
    21:00 +15°C° 0.6 mm 0 mps 612 mmHg 82%
    22:00 +15°C° 0 mm 1 mps 612 mmHg 84%
    23:00 +15°C° 0 mm 1 mps 612 mmHg 85%

    Day after tomorrow, 23 March, Saturday

    Time Temperature Precipitation Wind Pressure Humidity
    00:00 +15°C° 0 mm 1 mps 612 mmHg 86%
    01:00 +14°C° 0 mm 1 mps 612 mmHg 87%
    02:00 +13°C° 0 mm 0 mps 611 mmHg 88%
    03:00 +13°C° 0 mm 0 mps 611 mmHg 89%
    04:00 +12°C° 0 mm 0 mps 610 mmHg 90%
    05:00 +12°C° 0 mm 0 mps 610 mmHg 90%
    06:00 +12°C° 0 mm 0 mps 610 mmHg 90%
    07:00 +14°C° 0 mm 0 mps 612 mmHg 82%
    08:00 +17°C° 0 mm 0 mps 613 mmHg 73%
    09:00 +19°C° 0 mm 0 mps 614 mmHg 64%
    10:00 +22°C° 0 mm 1 mps 615 mmHg 57%
    11:00 +24°C° 0 mm 1 mps 615 mmHg 49%
    12:00 +25°C° 0 mm 2 mps 616 mmHg 42%
    13:00 +25°C° 0.3 mm 2 mps 615 mmHg 43%
    14:00 +25°C° 0.3 mm 3 mps 614 mmHg 45%
    15:00 +25°C° 0.3 mm 3 mps 613 mmHg 46%
    16:00 +24°C° 0.4 mm 3 mps 613 mmHg 52%
    17:00 +23°C° 0.4 mm 2 mps 612 mmHg 57%
    18:00 +20°C° 0.4 mm 2 mps 612 mmHg 63%
    19:00 +20°C° 0.1 mm 1 mps 612 mmHg 68%
    20:00 +19°C° 0.1 mm 1 mps 612 mmHg 72%
    21:00 +16°C° 0.1 mm 1 mps 612 mmHg 77%
    22:00 +16°C° 0 mm 1 mps 612 mmHg 78%
    23:00 +16°C° 0 mm 1 mps 612 mmHg 78%

    24 March, Sunday

    Time Temperature Precipitation Wind Pressure Humidity
    00:00 +15°C° 0 mm 1 mps 612 mmHg 78%
    01:00 +15°C° 0 mm 1 mps 612 mmHg 79%
    02:00 +15°C° 0 mm 1 mps 611 mmHg 80%
    03:00 +14°C° 0 mm 1 mps 611 mmHg 80%
    04:00 +14°C° 0 mm 1 mps 611 mmHg 81%
    05:00 +14°C° 0 mm 1 mps 611 mmHg 81%
    06:00 +14°C° 0 mm 1 mps 611 mmHg 81%
    07:00 +16°C° 0 mm 1 mps 612 mmHg 72%
    08:00 +19°C° 0 mm 1 mps 613 mmHg 63%
    09:00 +21°C° 0 mm 1 mps 615 mmHg 55%
    10:00 +23°C° 0 mm 1 mps 615 mmHg 48%
    11:00 +25°C° 0 mm 1 mps 616 mmHg 41%
    12:00 +28°C° 0 mm 1 mps 616 mmHg 35%
    13:00 +27°C° 0.1 mm 2 mps 615 mmHg 36%
    14:00 +27°C° 0.1 mm 2 mps 615 mmHg 37%
    15:00 +26°C° 0.1 mm 2 mps 614 mmHg 38%
    16:00 +25°C° 0.1 mm 2 mps 613 mmHg 41%
    17:00 +24°C° 0.1 mm 2 mps 613 mmHg 45%
    18:00 +23°C° 0.1 mm 2 mps 612 mmHg 49%
    19:00 +21°C° 0 mm 2 mps 612 mmHg 53%
    20:00 +19°C° 0 mm 2 mps 612 mmHg 58%
    21:00 +18°C° 0 mm 1 mps 612 mmHg 62%
    22:00 +17°C° 0 mm 2 mps 612 mmHg 64%
    23:00 +16°C° 0 mm 2 mps 612 mmHg 67%

    25 March, Monday

    Time Temperature Precipitation Wind Pressure Humidity
    00:00 +15°C° 0 mm 2 mps 612 mmHg 69%
    01:00 +15°C° 0 mm 2 mps 611 mmHg 70%
    02:00 +14°C° 0 mm 2 mps 610 mmHg 72%
    03:00 +13°C° 0 mm 2 mps 610 mmHg 73%
    04:00 +13°C° 0 mm 2 mps 610 mmHg 74%
    05:00 +13°C° 0 mm 2 mps 610 mmHg 74%
    06:00 +12°C° 0 mm 2 mps 610 mmHg 75%
    07:00 +15°C° 0 mm 2 mps 611 mmHg 65%
    08:00 +17°C° 0 mm 2 mps 612 mmHg 55%
    09:00 +19°C° 0 mm 2 mps 614 mmHg 45%
    10:00 +23°C° 0 mm 2 mps 614 mmHg 37%
    11:00 +25°C° 0 mm 2 mps 615 mmHg 29%
    12:00 +27°C° 0 mm 3 mps 615 mmHg 21%
    13:00 +27°C° 0 mm 3 mps 615 mmHg 20%
    14:00 +28°C° 0 mm 3 mps 614 mmHg 19%
    15:00 +28°C° 0 mm 3 mps 614 mmHg 18%
    16:00 +27°C° 0 mm 3 mps 613 mmHg 24%
    17:00 +25°C° 0 mm 3 mps 613 mmHg 30%
    18:00 +22°C° 0 mm 3 mps 612 mmHg 36%
    19:00 +20°C° 0 mm 2 mps 612 mmHg 40%
    20:00 +18°C° 0 mm 2 mps 612 mmHg 44%
    21:00 +16°C° 0 mm 2 mps 612 mmHg 49%
    22:00 +16°C° 0 mm 2 mps 611 mmHg 48%
    23:00 +15°C° 0 mm 2 mps 611 mmHg 47%

    26 March, Tuesday

    Time Temperature Precipitation Wind Pressure Humidity
    00:00 +14°C° 0 mm 2 mps 611 mmHg 47%
    01:00 +13°C° 0 mm 2 mps 610 mmHg 48%
    02:00 +13°C° 0 mm 2 mps 610 mmHg 50%
    03:00 +12°C° 0 mm 2 mps 609 mmHg 52%
    04:00 +12°C° 0 mm 2 mps 609 mmHg 57%
    05:00 +12°C° 0 mm 2 mps 609 mmHg 63%
    06:00 +10°C° 0 mm 2 mps 609 mmHg 68%
    07:00 +14°C° 0 mm 2 mps 611 mmHg 60%
    08:00 +16°C° 0 mm 2 mps 612 mmHg 51%
    09:00 +18°C° 0 mm 3 mps 614 mmHg 42%
    10:00 +21°C° 0 mm 3 mps 614 mmHg 35%
    11:00 +24°C° 0 mm 3 mps 614 mmHg 27%
    12:00 +26°C° 0 mm 3 mps 615 mmHg 20%
    13:00 +26°C° 0 mm 4 mps 614 mmHg 19%
    14:00 +27°C° 0 mm 4 mps 614 mmHg 18%
    15:00 +27°C° 0 mm 4 mps 614 mmHg 18%
    16:00 +26°C° 0 mm 4 mps 613 mmHg 22%
    17:00 +23°C° 0 mm 4 mps 613 mmHg 27%
    18:00 +22°C° 0 mm 3 mps 612 mmHg 31%
    19:00 +20°C° 0 mm 3 mps 612 mmHg 35%
    20:00 +18°C° 0 mm 3 mps 612 mmHg 38%
    21:00 +15°C° 0 mm 2 mps 612 mmHg 42%
    22:00 +15°C° 0 mm 2 mps 611 mmHg 44%
    23:00 +14°C° 0 mm 2 mps 611 mmHg 47%
    Show more